,,Stat6,,Stat2,,Stat8,,Stat9,,Stat10,,Wind1,,Wind1,
time,status,PA1M_AVG,status,PR1M_SUM,status,RH1M_AVG,status,SR1M_AVG,status,TA1M_AVG,status,W1dAve1m,status,W1sAve1m,
2004-01-21, 00:00:00,VALID,918.671,VALID,0,VALID,98.9258,VALID,0,VALID,19.6575,VALID,125,VALID,0.980824,
2004-01-21, 00:01:00,VALID,918.681,VALID,0,VALID,98.9804,VALID,0,VALID,19.6476,VALID,126,VALID,0.913132,
2004-01-21, 00:02:00,VALID,918.691,VALID,0.2,VALID,99.0974,VALID,0,VALID,19.6451,VALID,122,VALID,0.724085,
2004-01-21, 00:03:00,VALID,918.704,VALID,0,VALID,99.0885,VALID,-0.0169808,VALID,19.6486,VALID,130,VALID,0.823438,
2004-01-21, 00:04:00,VALID,918.703,VALID,0,VALID,99.1089,VALID,-0.0169808,VALID,19.6257,VALID,110,VALID,0.596989,
2004-01-21, 00:05:00,VALID,918.712,VALID,0.2,VALID,99.1496,VALID,0,VALID,19.6053,VALID,114,VALID,0.608631,
2004-01-21, 00:06:00,VALID,918.717,VALID,0,VALID,99.1966,VALID,0,VALID,19.5894,VALID,130,VALID,0.6875,
2004-01-21, 00:07:00,VALID,918.725,VALID,0,VALID,99.2538,VALID,-0.0169808,VALID,19.5934,VALID,129,VALID,0.626367,
2004-01-21, 00:08:00,VALID,918.733,VALID,0,VALID,99.2335,VALID,-0.0509425,VALID,19.5773,VALID,135,VALID,0.671689,
2004-01-21, 00:09:00,VALID,918.738,VALID,0,VALID,99.2665,VALID,-0.0169808,VALID,19.5639,VALID,137,VALID,0.582741,
2004-01-21, 00:10:00,VALID,918.731,VALID,0,VALID,99.264,VALID,-0.0169808,VALID,19.5477,VALID,136,VALID,0.477706,
2004-01-21, 00:11:00,VALID,918.743,VALID,0.2,VALID,99.3238,VALID,-0.0169808,VALID,19.535,VALID,137,VALID,0.867746,
2004-01-21, 00:12:00,VALID,918.737,VALID,0,VALID,99.3683,VALID,0,VALID,19.5251,VALID,129,VALID,0.880907,
2004-01-21, 00:13:00,VALID,918.737,VALID,0,VALID,99.4191,VALID,-0.0169808,VALID,19.5254,VALID,130,VALID,1.02344,
2004-01-21, 00:14:00,VALID,918.731,VALID,0,VALID,99.4585,VALID,-0.0339617,VALID,19.5254,VALID,126,VALID,0.75651,
2004-01-21, 00:15:00,VALID,918.717,VALID,0,VALID,99.5043,VALID,-0.0339617,VALID,19.5189,VALID,125,VALID,0.999619,
2004-01-21, 00:16:00,VALID,918.711,VALID,0,VALID,99.5196,VALID,-0.0169808,VALID,19.5159,VALID,128,VALID,1.06541,
2004-01-21, 00:17:00,VALID,918.691,VALID,0,VALID,99.5679,VALID,-0.0339617,VALID,19.5028,VALID,125,VALID,0.898801,
2004-01-21, 00:18:00,VALID,918.675,VALID,0,VALID,99.5921,VALID,-0.0339617,VALID,19.5097,VALID,128,VALID,0.867551,
2004-01-21, 00:19:00,VALID,918.666,VALID,0,VALID,99.5857,VALID,0,VALID,19.503,VALID,114,VALID,0.984184,
2004-01-21, 00:20:00,VALID,918.639,VALID,0,VALID,99.5997,VALID,0,VALID,19.4928,VALID,109,VALID,0.71984,
2004-01-21, 00:21:00,VALID,918.629,VALID,0,VALID,99.6773,VALID,0,VALID,19.5032,VALID,104,VALID,0.461119,
2004-01-21, 00:22:00,VALID,918.614,VALID,0,VALID,99.6798,VALID,-0.0169808,VALID,19.5159,VALID,99,VALID,0.805618,
2004-01-21, 00:23:00,VALID,918.615,VALID,0,VALID,99.6874,VALID,-0.0339617,VALID,19.503,VALID,97,VALID,0.685865,
2004-01-21, 00:24:00,VALID,918.609,VALID,0,VALID,99.7141,VALID,-0.0339617,VALID,19.5229,VALID,81,VALID,0.5496,
2004-01-21, 00:25:00,VALID,918.605,VALID,0,VALID,99.7129,VALID,-0.0509425,VALID,19.5162,VALID,71,VALID,0.867733,
2004-01-21, 00:26:00,VALID,918.599,VALID,0,VALID,99.7078,VALID,-0.0339617,VALID,19.5191,VALID,76,VALID,0.917969,
2004-01-21, 00:27:00,VALID,918.607,VALID,0,VALID,99.5921,VALID,-0.0169808,VALID,19.5062,VALID,86,VALID,0.83689,
2004-01-21, 00:28:00,VALID,918.593,VALID,0,VALID,99.5565,VALID,0,VALID,19.503,VALID,90,VALID,0.664444,
2004-01-21, 00:29:00,VALID,918.586,VALID,0,VALID,99.4942,VALID,-0.0339617,VALID,19.5092,VALID,89,VALID,0.712054,
2004-01-21, 00:30:00,VALID,918.571,VALID,0,VALID,99.47,VALID,-0.0169808,VALID,19.5057,VALID,86,VALID,0.497275,
2004-01-21, 00:31:00,VALID,918.557,VALID,0.2,VALID,99.4408,VALID,0,VALID,19.5187,VALID,79,VALID,0.539435,
2004-01-21, 00:32:00,VALID,918.554,VALID,0,VALID,99.3721,VALID,-0.0169808,VALID,19.5323,VALID,80,VALID,0.620536,
2004-01-21, 00:33:00,VALID,918.541,VALID,0,VALID,99.3072,VALID,-0.0339617,VALID,19.5226,VALID,96,VALID,0.56436,
2004-01-21, 00:34:00,VALID,918.539,VALID,0,VALID,99.2767,VALID,-0.0339617,VALID,19.5154,VALID,97,VALID,0.672053,
2004-01-21, 00:35:00,VALID,918.547,VALID,0,VALID,99.2347,VALID,-0.0509425,VALID,19.5184,VALID,97,VALID,0.563988,
2004-01-21, 00:36:00,VALID,918.549,VALID,0,VALID,99.2589,VALID,-0.0339617,VALID,19.5388,VALID,97,VALID,0.704484,
2004-01-21, 00:37:00,VALID,918.538,VALID,0,VALID,99.2004,VALID,-0.0509425,VALID,19.5418,VALID,96,VALID,0.878452,
2004-01-21, 00:38:00,VALID,918.529,VALID,0,VALID,99.1432,VALID,-0.0339617,VALID,19.5485,VALID,101,VALID,0.778088,
2004-01-21, 00:39:00,VALID,918.541,VALID,0,VALID,99.0961,VALID,-0.0339617,VALID,19.5383,VALID,109,VALID,0.892578,
2004-01-21, 00:40:00,VALID,918.54,VALID,0,VALID,99.0326,VALID,-0.0339617,VALID,19.5549,VALID,112,VALID,0.797783,
2004-01-21, 00:41:00,VALID,918.542,VALID,0,VALID,98.9995,VALID,0,VALID,19.5708,VALID,106,VALID,0.58194,
2004-01-21, 00:42:00,VALID,918.548,VALID,0,VALID,98.9105,VALID,-0.0169808,VALID,19.5703,VALID,102,VALID,0.802144,
2004-01-21, 00:43:00,VALID,918.555,VALID,0,VALID,98.8151,VALID,-0.0339617,VALID,19.5738,VALID,102,VALID,0.515807,
2004-01-21, 00:44:00,VALID,918.548,VALID,0,VALID,98.8533,VALID,0,VALID,19.6066,VALID,131,VALID,0.636628,
2004-01-21, 00:45:00,VALID,918.533,VALID,0,VALID,98.8647,VALID,0,VALID,19.616,VALID,141,VALID,1.16387,
2004-01-21, 00:46:00,VALID,918.512,VALID,0,VALID,98.8609,VALID,-0.0169808,VALID,19.6058,VALID,136,VALID,1.13086,
2004-01-21, 00:47:00,VALID,918.499,VALID,0,VALID,98.8787,VALID,0,VALID,19.6088,VALID,141,VALID,0.880504,
2004-01-21, 00:48:00,VALID,918.479,VALID,0,VALID,98.9334,VALID,-0.0169808,VALID,19.5932,VALID,138,VALID,0.820858,
2004-01-21, 00:49:00,VALID,918.465,VALID,0,VALID,98.9664,VALID,0,VALID,19.5832,VALID,124,VALID,0.946429,
2004-01-21, 00:50:00,VALID,918.44,VALID,0,VALID,99.0135,VALID,0,VALID,19.5636,VALID,120,VALID,1.0705,
2004-01-21, 00:51:00,VALID,918.431,VALID,0,VALID,99.0605,VALID,0.0169808,VALID,19.5572,VALID,110,VALID,0.818452,
2004-01-21, 00:52:00,VALID,918.418,VALID,0,VALID,99.1445,VALID,0.0169808,VALID,19.5475,VALID,109,VALID,0.810594,
2004-01-21, 00:53:00,VALID,918.395,VALID,0,VALID,99.236,VALID,0.0169808,VALID,19.5509,VALID,120,VALID,0.860899,
2004-01-21, 00:54:00,VALID,918.386,VALID,0,VALID,99.2831,VALID,0.0169808,VALID,19.5512,VALID,107,VALID,0.842262,
2004-01-21, 00:55:00,VALID,918.385,VALID,0,VALID,99.3657,VALID,0,VALID,19.5413,VALID,94,VALID,0.441506,
2004-01-21, 00:56:00,VALID,918.375,VALID,0,VALID,99.428,VALID,0,VALID,19.5413,VALID,95,VALID,0.577398,
2004-01-21, 00:57:00,VALID,918.372,VALID,0,VALID,99.4903,VALID,0.0169808,VALID,19.5512,VALID,83,VALID,0.863467,
2004-01-21, 00:58:00,VALID,918.369,VALID,0,VALID,99.5654,VALID,-0.0169808,VALID,19.5512,VALID,73,VALID,0.805069,
2004-01-21, 00:59:00,VALID,918.347,VALID,0,VALID,99.587,VALID,0,VALID,19.5639,VALID,71,VALID,0.788504,
2004-01-21, 01:00:00,VALID,918.328,VALID,0,VALID,99.6086,VALID,0,VALID,19.5611,VALID,77,VALID,0.887718,
2004-01-21, 01:01:00,VALID,918.313,VALID,0,VALID,99.6556,VALID,-0.0339617,VALID,19.574,VALID,62,VALID,0.648438,
2004-01-21, 01:02:00,VALID,918.314,VALID,0,VALID,99.648,VALID,0,VALID,19.5768,VALID,105,VALID,0.615007,
2004-01-21, 01:03:00,VALID,918.31,VALID,0,VALID,99.6251,VALID,-0.0169808,VALID,19.584,VALID,104,VALID,0.649346,
2004-01-21, 01:04:00,VALID,918.298,VALID,0,VALID,99.5997,VALID,0,VALID,19.5805,VALID,110,VALID,0.589658,
2004-01-21, 01:05:00,VALID,918.293,VALID,0,VALID,99.5743,VALID,0,VALID,19.5711,VALID,120,VALID,0.85883,
2004-01-21, 01:06:00,VALID,918.287,VALID,0,VALID,99.559,VALID,0,VALID,19.5418,VALID,123,VALID,0.756722,
2004-01-21, 01:07:00,VALID,918.276,VALID,0,VALID,99.5094,VALID,-0.0169808,VALID,19.5353,VALID,131,VALID,0.965216,
2004-01-21, 01:08:00,VALID,918.279,VALID,0,VALID,99.5031,VALID,0,VALID,19.5321,VALID,117,VALID,0.596608,
2004-01-21, 01:09:00,VALID,918.272,VALID,0,VALID,99.5348,VALID,0.0169808,VALID,19.5291,VALID,116,VALID,0.264172,
2004-01-21, 01:10:00,VALID,918.245,VALID,0,VALID,99.5755,VALID,-0.0169808,VALID,19.5425,VALID,116,VALID,0.114931,
2004-01-21, 01:11:00,VALID,918.223,VALID,0,VALID,99.5616,VALID,0,VALID,19.5318,VALID,127,VALID,0.434549,
2004-01-21, 01:12:00,VALID,918.191,VALID,0,VALID,99.5552,VALID,0.0169808,VALID,19.5219,VALID,133,VALID,0.437305,
2004-01-21, 01:13:00,VALID,918.177,VALID,0,VALID,99.5717,VALID,0,VALID,19.5219,VALID,130,VALID,0.663154,
2004-01-21, 01:14:00,VALID,918.153,VALID,0,VALID,99.601,VALID,0,VALID,19.5157,VALID,121,VALID,0.545455,
2004-01-21, 01:15:00,VALID,918.119,VALID,0,VALID,99.6353,VALID,0,VALID,19.5191,VALID,125,VALID,0.739644,
2004-01-21, 01:16:00,VALID,918.102,VALID,0,VALID,99.6684,VALID,0,VALID,19.5154,VALID,119,VALID,0.461719,
2004-01-21, 01:17:00,VALID,918.095,VALID,0,VALID,99.69,VALID,0,VALID,19.4958,VALID,117,VALID,0.0817708,
2004-01-21, 01:18:00,VALID,918.073,VALID,0,VALID,99.7625,VALID,0,VALID,19.5023,VALID,117,VALID,0,
2004-01-21, 01:19:00,VALID,918.063,VALID,0,VALID,99.8121,VALID,-0.0169808,VALID,19.5224,VALID,117,VALID,0.0561266,
2004-01-21, 01:20:00,VALID,918.056,VALID,0,VALID,99.793,VALID,-0.0169808,VALID,19.5288,VALID,117,VALID,0.101744,
2004-01-21, 01:21:00,VALID,918.06,VALID,0,VALID,99.807,VALID,0,VALID,19.5122,VALID,117,VALID,0,
2004-01-21, 01:22:00,VALID,918.052,VALID,0,VALID,99.8438,VALID,0,VALID,19.5162,VALID,117,VALID,0.000173611,
2004-01-21, 01:23:00,VALID,918.05,VALID,0,VALID,99.8604,VALID,0,VALID,19.5191,VALID,89,VALID,0.296697,
2004-01-21, 01:24:00,VALID,918.048,VALID,0,VALID,99.8884,VALID,0,VALID,19.535,VALID,78,VALID,0.0452009,
2004-01-21, 01:25:00,VALID,918.038,VALID,0,VALID,99.8871,VALID,0.0169808,VALID,19.5383,VALID,78,VALID,0.0626776,
2004-01-21, 01:26:00,VALID,918.03,VALID,0,VALID,99.8502,VALID,0,VALID,19.5221,VALID,78,VALID,0.095246,
2004-01-21, 01:27:00,VALID,918.026,VALID,0,VALID,99.8553,VALID,0,VALID,19.5154,VALID,78,VALID,0.0848474,
2004-01-21, 01:28:00,VALID,918.034,VALID,0,VALID,99.8489,VALID,0,VALID,19.5122,VALID,78,VALID,0.0581395,
2004-01-21, 01:29:00,VALID,918.029,VALID,0,VALID,99.8057,VALID,0,VALID,19.503,VALID,78,VALID,0.177326,
2004-01-21, 01:30:00,VALID,918.026,VALID,0,VALID,99.8032,VALID,0.0169808,VALID,19.4896,VALID,78,VALID,0.0123547,
2004-01-21, 01:31:00,VALID,918.038,VALID,0,VALID,99.7815,VALID,0,VALID,19.4896,VALID,78,VALID,0.104469,
2004-01-21, 01:32:00,VALID,918.034,VALID,0,VALID,99.8032,VALID,-0.0169808,VALID,19.4968,VALID,78,VALID,0.201853,
2004-01-21, 01:33:00,VALID,918.035,VALID,0,VALID,99.8222,VALID,0,VALID,19.5127,VALID,20,VALID,0.328295,
2004-01-21, 01:34:00,VALID,918.031,VALID,0,VALID,99.7904,VALID,-0.0169808,VALID,19.5095,VALID,19,VALID,0.234908,
2004-01-21, 01:35:00,VALID,918.021,VALID,0,VALID,99.8159,VALID,0,VALID,19.5129,VALID,19,VALID,0.483631,
2004-01-21, 01:36:00,VALID,918.009,VALID,0,VALID,99.7815,VALID,0,VALID,19.503,VALID,14,VALID,0.502046,
2004-01-21, 01:37:00,VALID,918.003,VALID,0,VALID,99.7205,VALID,0,VALID,19.4804,VALID,6,VALID,0.441939,
2004-01-21, 01:38:00,VALID,917.992,VALID,0,VALID,99.7574,VALID,0,VALID,19.4576,VALID,5,VALID,0.419829,
2004-01-21, 01:39:00,VALID,917.97,VALID,0,VALID,99.7243,VALID,0,VALID,19.4546,VALID,1,VALID,0.448038,
2004-01-21, 01:40:00,VALID,917.97,VALID,0,VALID,99.779,VALID,0,VALID,19.4516,VALID,1,VALID,0.28468,
2004-01-21, 01:41:00,VALID,917.966,VALID,0,VALID,99.8184,VALID,0,VALID,19.4511,VALID,1,VALID,0.470084,
2004-01-21, 01:42:00,VALID,917.969,VALID,0,VALID,99.8184,VALID,0,VALID,19.4481,VALID,8,VALID,0.473514,
2004-01-21, 01:43:00,VALID,917.967,VALID,0,VALID,99.8731,VALID,0.0509425,VALID,19.4603,VALID,18,VALID,0.385174,
2004-01-21, 01:44:00,VALID,917.973,VALID,0,VALID,99.8985,VALID,0.101885,VALID,19.4603,VALID,18,VALID,0.34375,
2004-01-21, 01:45:00,VALID,917.976,VALID,0,VALID,99.896,VALID,0.101885,VALID,19.4404,VALID,18,VALID,0.333705,
2004-01-21, 01:46:00,VALID,917.957,VALID,0,VALID,99.9049,VALID,0.0339617,VALID,19.4444,VALID,18,VALID,0.0720881,
2004-01-21, 01:47:00,VALID,917.949,VALID,0,VALID,99.9176,VALID,0,VALID,19.4171,VALID,18,VALID,0.102734,
2004-01-21, 01:48:00,VALID,917.951,VALID,0,VALID,99.9367,VALID,0.0509425,VALID,19.4315,VALID,18,VALID,0.373728,
2004-01-21, 01:49:00,VALID,917.926,VALID,0,VALID,99.9621,VALID,0.0679233,VALID,19.4275,VALID,18,VALID,0.369368,
2004-01-21, 01:50:00,VALID,917.902,VALID,0,VALID,99.9944,VALID,0.0509425,VALID,19.4282,VALID,25,VALID,0.498698,
2004-01-21, 01:51:00,VALID,917.884,VALID,0,VALID,99.9934,VALID,0.0509425,VALID,19.4178,VALID,39,VALID,0.654948,
2004-01-21, 01:52:00,VALID,917.855,VALID,0,VALID,100,VALID,0.0849042,VALID,19.4114,VALID,42,VALID,0.774503,
2004-01-21, 01:53:00,VALID,917.847,VALID,0,VALID,99.999,VALID,0.0849042,VALID,19.3982,VALID,47,VALID,0.808689,
2004-01-21, 01:54:00,VALID,917.838,VALID,0,VALID,100,VALID,0.0679233,VALID,19.4119,VALID,56,VALID,0.74314,
2004-01-21, 01:55:00,VALID,917.822,VALID,0,VALID,100,VALID,0.0849042,VALID,19.4081,VALID,64,VALID,0.772266,
2004-01-21, 01:56:00,VALID,917.826,VALID,0,VALID,100,VALID,0.101885,VALID,19.3952,VALID,78,VALID,0.772866,
2004-01-21, 01:57:00,VALID,917.821,VALID,0,VALID,100,VALID,0.101885,VALID,19.3691,VALID,92,VALID,0.790879,
2004-01-21, 01:58:00,VALID,917.822,VALID,0,VALID,100,VALID,0,VALID,19.3711,VALID,114,VALID,0.960938,
2004-01-21, 01:59:00,VALID,917.815,VALID,0,VALID,100,VALID,-0.0169808,VALID,19.3778,VALID,124,VALID,1.06157,
2004-01-21, 02:00:00,VALID,917.806,VALID,0,VALID,100,VALID,-0.0169808,VALID,19.3642,VALID,125,VALID,0.975781,
2004-01-21, 02:01:00,VALID,917.793,VALID,0,VALID,100,VALID,0,VALID,19.3579,VALID,134,VALID,0.955611,
2004-01-21, 02:02:00,VALID,917.766,VALID,0,VALID,100,VALID,0,VALID,19.3448,VALID,132,VALID,0.803354,
2004-01-21, 02:03:00,VALID,917.759,VALID,0,VALID,100,VALID,-0.0169808,VALID,19.3713,VALID,140,VALID,0.706659,
2004-01-21, 02:04:00,VALID,917.738,VALID,0,VALID,100,VALID,-0.0509425,VALID,19.384,VALID,136,VALID,0.670422,
2004-01-21, 02:05:00,VALID,917.729,VALID,0,VALID,100,VALID,-0.0339617,VALID,19.3833,VALID,128,VALID,0.470796,
2004-01-21, 02:06:00,VALID,917.723,VALID,0,VALID,100,VALID,-0.0339617,VALID,19.39,VALID,117,VALID,0.388951,
2004-01-21, 02:07:00,VALID,917.713,VALID,0,VALID,100,VALID,-0.0169808,VALID,19.3676,VALID,112,VALID,0.469308,
2004-01-21, 02:08:00,VALID,917.694,VALID,0,VALID,100,VALID,-0.0339617,VALID,19.355,VALID,119,VALID,0.456676,
2004-01-21, 02:09:00,VALID,917.69,VALID,0,VALID,100,VALID,-0.0169808,VALID,19.3418,VALID,119,VALID,0.574405,
2004-01-21, 02:10:00,VALID,917.689,VALID,0,VALID,100,VALID,-0.0169808,VALID,19.3323,VALID,119,VALID,0.53468,
2004-01-21, 02:11:00,VALID,917.67,VALID,0,VALID,100,VALID,0,VALID,19.3326,VALID,119,VALID,0.552455,
2004-01-21, 02:12:00,VALID,917.672,VALID,0,VALID,100,VALID,-0.0169808,VALID,19.3224,VALID,116,VALID,0.43608,
2004-01-21, 02:13:00,VALID,917.646,VALID,0,VALID,100,VALID,-0.0509425,VALID,19.345,VALID,105,VALID,0.302269,
2004-01-21, 02:14:00,VALID,917.643,VALID,0,VALID,100,VALID,-0.0679233,VALID,19.3776,VALID,104,VALID,0.356771,
2004-01-21, 02:15:00,VALID,917.627,VALID,0,VALID,100,VALID,-0.0509425,VALID,19.384,VALID,103,VALID,0.396577,
2004-01-21, 02:16:00,VALID,917.625,VALID,0,VALID,100,VALID,-0.0339617,VALID,19.3808,VALID,103,VALID,0.422894,
2004-01-21, 02:17:00,VALID,917.615,VALID,0,VALID,100,VALID,-0.0169808,VALID,19.3746,VALID,113,VALID,0.800781,
2004-01-21, 02:18:00,VALID,917.599,VALID,0,VALID,100,VALID,0,VALID,19.3843,VALID,117,VALID,0.753196,
2004-01-21, 02:19:00,VALID,917.588,VALID,0,VALID,100,VALID,-0.0169808,VALID,19.3776,VALID,122,VALID,0.983803,
2004-01-21, 02:20:00,VALID,917.58,VALID,0,VALID,100,VALID,0,VALID,19.3875,VALID,131,VALID,0.879492,
2004-01-21, 02:21:00,VALID,917.573,VALID,0,VALID,100,VALID,-0.0169808,VALID,19.3875,VALID,129,VALID,0.751817,
2004-01-21, 02:22:00,VALID,917.591,VALID,0,VALID,100,VALID,-0.0169808,VALID,19.387,VALID,109,VALID,0.557165,
2004-01-21, 02:23:00,VALID,917.569,VALID,0,VALID,100,VALID,-0.0169808,VALID,19.3843,VALID,130,VALID,0.726372,
2004-01-21, 02:24:00,VALID,917.585,VALID,0,VALID,100,VALID,-0.0169808,VALID,19.3843,VALID,131,VALID,0.316584,
2004-01-21, 02:25:00,VALID,917.566,VALID,0,VALID,100,VALID,-0.0679233,VALID,19.381,VALID,135,VALID,0.238095,
2004-01-21, 02:26:00,VALID,917.556,VALID,0,VALID,100,VALID,-0.0339617,VALID,19.3902,VALID,136,VALID,0.118096,
2004-01-21, 02:27:00,VALID,917.538,VALID,0,VALID,100,VALID,-0.0339617,VALID,19.3937,VALID,136,VALID,0.0566406,
2004-01-21, 02:28:00,VALID,917.539,VALID,0,VALID,100,VALID,0.0169808,VALID,19.3902,VALID,136,VALID,0,
2004-01-21, 02:29:00,VALID,917.515,VALID,0,VALID,100,VALID,0,VALID,19.4101,VALID,136,VALID,0.00111607,
2004-01-21, 02:30:00,VALID,917.49,VALID,0,VALID,100,VALID,-0.0679233,VALID,19.3969,VALID,136,VALID,0.0294744,
2004-01-21, 02:31:00,VALID,917.473,VALID,0,VALID,100,VALID,-0.0169808,VALID,19.3964,VALID,136,VALID,0.117188,
2004-01-21, 02:32:00,VALID,917.45,VALID,0,VALID,100,VALID,0.0169808,VALID,19.4158,VALID,115,VALID,0.342416,
2004-01-21, 02:33:00,VALID,917.437,VALID,0,VALID,100,VALID,-0.0169808,VALID,19.4451,VALID,76,VALID,0.49349,
2004-01-21, 02:34:00,VALID,917.415,VALID,0,VALID,100,VALID,-0.0339617,VALID,19.4484,VALID,76,VALID,0.49673,
2004-01-21, 02:35:00,VALID,917.395,VALID,0,VALID,100,VALID,-0.0339617,VALID,19.4553,VALID,76,VALID,0.486049,
2004-01-21, 02:36:00,VALID,917.377,VALID,0,VALID,100,VALID,-0.0169808,VALID,19.4121,VALID,81,VALID,0.473895,
2004-01-21, 02:37:00,VALID,917.35,VALID,0,VALID,100,VALID,0,VALID,19.4262,VALID,97,VALID,0.573103,
2004-01-21, 02:38:00,VALID,917.342,VALID,0,VALID,100,VALID,0.0169808,VALID,19.4128,VALID,109,VALID,0.638393,
2004-01-21, 02:39:00,VALID,917.323,VALID,0,VALID,100,VALID,0,VALID,19.4228,VALID,109,VALID,0.408975,
2004-01-21, 02:40:00,VALID,917.319,VALID,0,VALID,100,VALID,0.0169808,VALID,19.4456,VALID,112,VALID,0.304129,
2004-01-21, 02:41:00,VALID,917.311,VALID,0,VALID,100,VALID,-0.0169808,VALID,19.4414,VALID,112,VALID,0.0571181,
2004-01-21, 02:42:00,VALID,917.317,VALID,0,VALID,100,VALID,0,VALID,19.4578,VALID,112,VALID,0,
2004-01-21, 02:43:00,VALID,917.315,VALID,0,VALID,100,VALID,0.0169808,VALID,19.4471,VALID,110,VALID,0.185268,
2004-01-21, 02:44:00,VALID,917.321,VALID,0,VALID,100,VALID,0,VALID,19.4476,VALID,110,VALID,0.0447443,
2004-01-21, 02:45:00,VALID,917.324,VALID,0,VALID,100,VALID,0,VALID,19.4543,VALID,110,VALID,0.0509588,
2004-01-21, 02:46:00,VALID,917.336,VALID,0,VALID,100,VALID,0,VALID,19.4541,VALID,110,VALID,0,
2004-01-21, 02:47:00,VALID,917.336,VALID,0,VALID,100,VALID,0,VALID,19.4576,VALID,110,VALID,0,
2004-01-21, 02:48:00,VALID,917.332,VALID,0,VALID,100,VALID,0.0169808,VALID,19.4605,VALID,110,VALID,0,
2004-01-21, 02:49:00,VALID,917.318,VALID,0,VALID,100,VALID,0.0169808,VALID,19.4772,VALID,110,VALID,0,
2004-01-21, 02:50:00,VALID,917.311,VALID,0,VALID,100,VALID,0,VALID,19.4794,VALID,110,VALID,0,
2004-01-21, 02:51:00,VALID,917.3,VALID,0,VALID,100,VALID,0.0169808,VALID,19.4829,VALID,110,VALID,0,
2004-01-21, 02:52:00,VALID,917.267,VALID,0,VALID,100,VALID,0.0679233,VALID,19.5025,VALID,110,VALID,0.00429688,
2004-01-21, 02:53:00,VALID,917.251,VALID,0,VALID,100,VALID,0.0339617,VALID,19.4968,VALID,110,VALID,0.0481771,
2004-01-21, 02:54:00,VALID,917.242,VALID,0,VALID,100,VALID,0.0169808,VALID,19.4836,VALID,110,VALID,0.117773,
2004-01-21, 02:55:00,VALID,917.226,VALID,0,VALID,100,VALID,-0.0169808,VALID,19.4737,VALID,110,VALID,0.291061,
2004-01-21, 02:56:00,VALID,917.212,VALID,0,VALID,100,VALID,0,VALID,19.4444,VALID,113,VALID,0.686228,
2004-01-21, 02:57:00,VALID,917.2,VALID,0,VALID,100,VALID,0,VALID,19.4223,VALID,111,VALID,0.647892,
2004-01-21, 02:58:00,VALID,917.192,VALID,0,VALID,100,VALID,-0.101885,VALID,19.4106,VALID,95,VALID,0.623001,
2004-01-21, 02:59:00,VALID,917.207,VALID,0,VALID,100,VALID,-0.101885,VALID,19.4138,VALID,106,VALID,0.787791,
2004-01-21, 03:00:00,VALID,917.2,VALID,0,VALID,100,VALID,-0.101885,VALID,19.4111,VALID,103,VALID,0.699124,
2004-01-21, 03:01:00,VALID,917.199,VALID,0,VALID,100,VALID,-0.101885,VALID,19.4046,VALID,124,VALID,0.879764,
2004-01-21, 03:02:00,VALID,917.217,VALID,0,VALID,100,VALID,-0.101885,VALID,19.4076,VALID,129,VALID,1.04955,
2004-01-21, 03:03:00,VALID,917.214,VALID,0,VALID,100,VALID,-0.118866,VALID,19.4143,VALID,136,VALID,0.84976,
2004-01-21, 03:04:00,VALID,917.212,VALID,0,VALID,100,VALID,-0.101885,VALID,19.4108,VALID,132,VALID,0.717507,
2004-01-21, 03:05:00,VALID,917.215,VALID,0,VALID,100,VALID,-0.101885,VALID,19.4173,VALID,127,VALID,0.603198,
2004-01-21, 03:06:00,VALID,917.215,VALID,0,VALID,100,VALID,-0.101885,VALID,19.4205,VALID,127,VALID,0.459666,
2004-01-21, 03:07:00,VALID,917.192,VALID,0,VALID,100,VALID,-0.101885,VALID,19.4205,VALID,128,VALID,0.66282,
2004-01-21, 03:08:00,VALID,917.193,VALID,0,VALID,100,VALID,-0.0849042,VALID,19.4267,VALID,126,VALID,0.632449,
2004-01-21, 03:09:00,VALID,917.187,VALID,0,VALID,100,VALID,-0.0849042,VALID,19.4208,VALID,125,VALID,0.701029,
2004-01-21, 03:10:00,VALID,917.167,VALID,0,VALID,100,VALID,-0.101885,VALID,19.3942,VALID,104,VALID,0.650436,
2004-01-21, 03:11:00,VALID,917.172,VALID,0,VALID,100,VALID,-0.101885,VALID,19.4083,VALID,112,VALID,0.87832,
2004-01-21, 03:12:00,VALID,917.165,VALID,0,VALID,100,VALID,-0.118866,VALID,19.3818,VALID,110,VALID,0.981534,
2004-01-21, 03:13:00,VALID,917.17,VALID,0,VALID,100,VALID,-0.0169808,VALID,19.3669,VALID,121,VALID,0.96689,
2004-01-21, 03:14:00,VALID,917.17,VALID,0,VALID,100,VALID,0.0169808,VALID,19.3808,VALID,123,VALID,1.09248,
2004-01-21, 03:15:00,VALID,917.17,VALID,0,VALID,100,VALID,-0.0169808,VALID,19.3776,VALID,121,VALID,0.796503,
2004-01-21, 03:16:00,VALID,917.162,VALID,0,VALID,100,VALID,-0.0169808,VALID,19.3746,VALID,128,VALID,0.847929,
2004-01-21, 03:17:00,VALID,917.154,VALID,0,VALID,100,VALID,0,VALID,19.3746,VALID,120,VALID,0.924782,
2004-01-21, 03:18:00,VALID,917.151,VALID,0,VALID,100,VALID,0,VALID,19.351,VALID,117,VALID,0.796494,
2004-01-21, 03:19:00,VALID,917.134,VALID,0,VALID,100,VALID,0,VALID,19.3582,VALID,121,VALID,0.379383,
2004-01-21, 03:20:00,VALID,917.124,VALID,0,VALID,100,VALID,0,VALID,19.3478,VALID,121,VALID,0.340199,
2004-01-21, 03:21:00,VALID,917.092,VALID,0,VALID,100,VALID,0,VALID,19.3512,VALID,128,VALID,0.482292,
2004-01-21, 03:22:00,VALID,917.082,VALID,0,VALID,100,VALID,0,VALID,19.3443,VALID,138,VALID,0.822266,
2004-01-21, 03:23:00,VALID,917.069,VALID,0,VALID,100,VALID,0.0169808,VALID,19.3453,VALID,133,VALID,0.679497,
2004-01-21, 03:24:00,VALID,917.052,VALID,0,VALID,100,VALID,0.0169808,VALID,19.3423,VALID,133,VALID,0.520139,
2004-01-21, 03:25:00,VALID,917.052,VALID,0,VALID,100,VALID,0,VALID,19.3356,VALID,132,VALID,0.453325,
2004-01-21, 03:26:00,VALID,917.036,VALID,0,VALID,100,VALID,0,VALID,19.3259,VALID,127,VALID,0.376065,
2004-01-21, 03:27:00,VALID,917.038,VALID,0,VALID,100,VALID,0,VALID,19.3259,VALID,126,VALID,0.488961,
2004-01-21, 03:28:00,VALID,917.038,VALID,0,VALID,100,VALID,0,VALID,19.3093,VALID,125,VALID,0.688616,
2004-01-21, 03:29:00,VALID,917.034,VALID,0,VALID,100,VALID,0,VALID,19.2998,VALID,127,VALID,0.730646,
2004-01-21, 03:30:00,VALID,917.04,VALID,0,VALID,100,VALID,-0.0169808,VALID,19.303,VALID,142,VALID,0.756392,
2004-01-21, 03:31:00,VALID,917.02,VALID,0,VALID,100,VALID,-0.0169808,VALID,19.2899,VALID,136,VALID,0.742569,
2004-01-21, 03:32:00,VALID,917.009,VALID,0,VALID,100,VALID,0,VALID,19.3095,VALID,136,VALID,0.699855,
2004-01-21, 03:33:00,VALID,917.01,VALID,0,VALID,100,VALID,0,VALID,19.3194,VALID,133,VALID,0.611133,
2004-01-21, 03:34:00,VALID,917.014,VALID,0,VALID,100,VALID,-0.0169808,VALID,19.313,VALID,131,VALID,0.371911,
2004-01-21, 03:35:00,VALID,917.021,VALID,0,VALID,100,VALID,0.0169808,VALID,19.3122,VALID,131,VALID,0.277716,
2004-01-21, 03:36:00,VALID,917.023,VALID,0,VALID,100,VALID,0.0169808,VALID,19.3291,VALID,129,VALID,0.461682,
2004-01-21, 03:37:00,VALID,917.029,VALID,0,VALID,100,VALID,0,VALID,19.3254,VALID,97,VALID,0.42016,
2004-01-21, 03:38:00,VALID,917.027,VALID,0,VALID,100,VALID,0,VALID,19.3351,VALID,91,VALID,0.182165,
2004-01-21, 03:39:00,VALID,917.031,VALID,0,VALID,100,VALID,-0.0169808,VALID,19.3381,VALID,91,VALID,0.220898,
2004-01-21, 03:40:00,VALID,917.032,VALID,0,VALID,100,VALID,0.0169808,VALID,19.3646,VALID,67,VALID,0.378239,